EN

Hourly Weather Ludzmierz

Today, 26 November, Thursday

Time Temperature Precipitation Wind Pressure Humidity
00:00 +1°C° 0 mm 1 mps 713 mmHg 50%
01:00 -1°C° 0 mm 2 mps 713 mmHg 51%
02:00 +1°C° 0 mm 1 mps 713 mmHg 51%
03:00 +1°C° 0 mm 1 mps 712 mmHg 52%
04:00 +1°C° 0 mm 1 mps 712 mmHg 52%
05:00 +1°C° 0 mm 1 mps 712 mmHg 53%
06:00 +1°C° 0 mm 1 mps 713 mmHg 54%
07:00 +1°C° 0 mm 1 mps 713 mmHg 54%
08:00 +2°C° 0 mm 1 mps 713 mmHg 52%
09:00 +4°C° 0 mm 1 mps 713 mmHg 49%
10:00 +5°C° 0 mm 1 mps 713 mmHg 46%
11:00 +6°C° 0 mm 1 mps 713 mmHg 48%
12:00 +6°C° 0 mm 1 mps 713 mmHg 50%
13:00 +7°C° 0 mm 1 mps 713 mmHg 51%
14:00 +5°C° 0 mm 1 mps 713 mmHg 58%
15:00 +4°C° 0 mm 1 mps 712 mmHg 66%
16:00 +2°C° 0 mm 1 mps 712 mmHg 73%
17:00 +2°C° 0 mm 1 mps 712 mmHg 73%
18:00 +1°C° 0 mm 1 mps 712 mmHg 74%
19:00 +1°C° 0 mm 1 mps 712 mmHg 74%
20:00 +1°C° 0 mm 1 mps 712 mmHg 72%
21:00 +1°C° 0 mm 1 mps 712 mmHg 70%
22:00 +1°C° 0 mm 1 mps 712 mmHg 68%
23:00 +1°C° 0 mm 1 mps 712 mmHg 66%

Tomorrow, 27 November, Friday

Time Temperature Precipitation Wind Pressure Humidity
00:00 +1°C° 0 mm 1 mps 712 mmHg 64%
01:00 +2°C° 0 mm 1 mps 711 mmHg 62%
02:00 +2°C° 0 mm 1 mps 711 mmHg 62%
03:00 +2°C° 0 mm 1 mps 711 mmHg 62%
04:00 +2°C° 0 mm 1 mps 711 mmHg 62%
05:00 +2°C° 0 mm 1 mps 711 mmHg 62%
06:00 +2°C° 0 mm 1 mps 711 mmHg 62%
07:00 +2°C° 0 mm 1 mps 711 mmHg 63%
08:00 +3°C° 0 mm 1 mps 711 mmHg 64%
09:00 +4°C° 0 mm 0 mps 712 mmHg 66%
10:00 +5°C° 0 mm 0 mps 712 mmHg 67%
11:00 +5°C° 0 mm 0 mps 712 mmHg 69%
12:00 +7°C° 0 mm 1 mps 712 mmHg 70%
13:00 +7°C° 0 mm 1 mps 712 mmHg 72%
14:00 +6°C° 0 mm 1 mps 711 mmHg 78%
15:00 +4°C° 0 mm 0 mps 711 mmHg 85%
16:00 +2°C° 0 mm 0 mps 711 mmHg 91%
17:00 +2°C° 0 mm 0 mps 711 mmHg 92%
18:00 +2°C° 0 mm 0 mps 711 mmHg 93%
19:00 +2°C° 0 mm 0 mps 711 mmHg 94%
20:00 +2°C° 0.1 mm 0 mps 711 mmHg 95%
21:00 +2°C° 0.1 mm 0 mps 710 mmHg 96%
22:00 +2°C° 0.1 mm 0 mps 710 mmHg 97%
23:00 +2°C° 0.3 mm 0 mps 710 mmHg 97%

Day after tomorrow, 28 November, Saturday

Time Temperature Precipitation Wind Pressure Humidity
00:00 +2°C° 0.3 mm 0 mps 710 mmHg 98%
01:00 +2°C° 0.3 mm 0 mps 710 mmHg 98%
02:00 +3°C° 0.3 mm 1 mps 710 mmHg 98%
03:00 +3°C° 0.3 mm 1 mps 709 mmHg 98%
04:00 +3°C° 0.3 mm 1 mps 709 mmHg 98%
05:00 +2°C° 0.3 mm 1 mps 709 mmHg 97%
06:00 +2°C° 0.3 mm 1 mps 709 mmHg 96%
07:00 +2°C° 0.3 mm 1 mps 709 mmHg 96%
08:00 +2°C° 0.1 mm 1 mps 709 mmHg 93%
09:00 +2°C° 0.1 mm 1 mps 708 mmHg 91%
10:00 +2°C° 0.1 mm 1 mps 708 mmHg 89%
11:00 +1°C° 0.2 mm 2 mps 708 mmHg 88%
12:00 +1°C° 0.2 mm 2 mps 708 mmHg 87%
13:00 +1°C° 0.2 mm 2 mps 708 mmHg 87%
14:00 -1°C° 0.3 mm 2 mps 708 mmHg 90%
15:00 0°C° 0.3 mm 1 mps 708 mmHg 93%
16:00 0°C° 0.3 mm 1 mps 708 mmHg 95%
17:00 -1°C° 0.6 mm 1 mps 708 mmHg 95%
18:00 -3°C° 0.6 mm 2 mps 708 mmHg 95%
19:00 -3°C° 0.6 mm 2 mps 709 mmHg 95%
20:00 -3°C° 0.4 mm 2 mps 709 mmHg 95%
21:00 -4°C° 0.4 mm 2 mps 709 mmHg 96%
22:00 -4°C° 0.4 mm 2 mps 709 mmHg 96%
23:00 -3°C° 0.1 mm 1 mps 709 mmHg 96%

29 November, Sunday

Time Temperature Precipitation Wind Pressure Humidity
00:00 -3°C° 0.1 mm 1 mps 709 mmHg 96%
01:00 -3°C° 0.1 mm 1 mps 709 mmHg 96%
02:00 -4°C° 0.1 mm 1 mps 709 mmHg 96%
03:00 -4°C° 0.1 mm 1 mps 709 mmHg 96%
04:00 -4°C° 0.1 mm 1 mps 709 mmHg 96%
05:00 -4°C° 0 mm 1 mps 709 mmHg 96%
06:00 -6°C° 0 mm 1 mps 709 mmHg 96%
07:00 -6°C° 0 mm 1 mps 709 mmHg 96%
08:00 -4°C° 0 mm 1 mps 709 mmHg 91%
09:00 -3°C° 0 mm 1 mps 709 mmHg 86%
10:00 -2°C° 0 mm 1 mps 709 mmHg 81%
11:00 -2°C° 0 mm 1 mps 709 mmHg 81%
12:00 -1°C° 0 mm 1 mps 709 mmHg 81%
13:00 -1°C° 0 mm 1 mps 709 mmHg 81%
14:00 -1°C° 0.1 mm 1 mps 709 mmHg 86%
15:00 -3°C° 0.1 mm 0 mps 709 mmHg 91%
16:00 -3°C° 0.1 mm 0 mps 708 mmHg 95%
17:00 -3°C° 0.1 mm 0 mps 708 mmHg 95%
18:00 -3°C° 0.1 mm 0 mps 709 mmHg 95%
19:00 -4°C° 0.1 mm 0 mps 709 mmHg 95%
20:00 -4°C° 0 mm 0 mps 709 mmHg 95%
21:00 -4°C° 0 mm 0 mps 709 mmHg 95%
22:00 -4°C° 0 mm 0 mps 709 mmHg 95%
23:00 -5°C° 0 mm 0 mps 709 mmHg 95%

30 November, Monday

Time Temperature Precipitation Wind Pressure Humidity
00:00 -5°C° 0 mm 0 mps 709 mmHg 95%
01:00 -5°C° 0 mm 0 mps 710 mmHg 95%
02:00 -5°C° 0 mm 0 mps 710 mmHg 96%
03:00 -5°C° 0 mm 0 mps 710 mmHg 96%
04:00 -5°C° 0 mm 0 mps 711 mmHg 96%
05:00 -5°C° 0 mm 0 mps 711 mmHg 96%
06:00 -5°C° 0 mm 0 mps 711 mmHg 97%
07:00 -5°C° 0 mm 0 mps 712 mmHg 97%
08:00 -3°C° 0 mm 1 mps 712 mmHg 93%
09:00 -2°C° 0 mm 1 mps 713 mmHg 90%
10:00 -2°C° 0 mm 1 mps 714 mmHg 86%
11:00 -1°C° 0 mm 1 mps 714 mmHg 85%
12:00 -1°C° 0 mm 1 mps 714 mmHg 83%
13:00 -1°C° 0 mm 1 mps 714 mmHg 82%
14:00 -1°C° 0 mm 1 mps 714 mmHg 84%
15:00 -2°C° 0 mm 1 mps 714 mmHg 87%
16:00 -2°C° 0 mm 1 mps 714 mmHg 90%
17:00 -3°C° 0 mm 1 mps 715 mmHg 90%
18:00 -3°C° 0 mm 1 mps 715 mmHg 91%
19:00 -3°C° 0 mm 1 mps 715 mmHg 91%
20:00 -4°C° 0 mm 1 mps 715 mmHg 92%
21:00 -4°C° 0 mm 1 mps 715 mmHg 93%
22:00 -5°C° 0 mm 0 mps 715 mmHg 94%
23:00 -6°C° 0 mm 0 mps 715 mmHg 93%

1 December, Tuesday

Time Temperature Precipitation Wind Pressure Humidity
00:00 -6°C° 0 mm 0 mps 715 mmHg 93%
01:00 -6°C° 0 mm 0 mps 715 mmHg 92%
02:00 -6°C° 0 mm 1 mps 715 mmHg 92%
03:00 -6°C° 0 mm 1 mps 715 mmHg 91%
04:00 -7°C° 0 mm 1 mps 715 mmHg 91%
05:00 -7°C° 0 mm 1 mps 715 mmHg 90%
06:00 -7°C° 0 mm 1 mps 715 mmHg 89%
07:00 -7°C° 0 mm 1 mps 715 mmHg 89%
08:00 -4°C° 0 mm 1 mps 716 mmHg 85%
09:00 -3°C° 0 mm 1 mps 716 mmHg 81%
10:00 -2°C° 0 mm 1 mps 716 mmHg 77%
11:00 -1°C° 0 mm 1 mps 716 mmHg 77%
12:00 -1°C° 0 mm 1 mps 716 mmHg 78%
13:00 0°C° 0 mm 1 mps 715 mmHg 78%
14:00 -1°C° 0 mm 1 mps 715 mmHg 83%
15:00 -2°C° 0 mm 1 mps 715 mmHg 88%
16:00 -3°C° 0 mm 1 mps 715 mmHg 93%
17:00 -3°C° 0 mm 1 mps 715 mmHg 93%
18:00 -3°C° 0 mm 1 mps 715 mmHg 93%
19:00 -3°C° 0 mm 1 mps 715 mmHg 93%
20:00 -3°C° 0 mm 1 mps 715 mmHg 93%
21:00 -3°C° 0 mm 1 mps 715 mmHg 92%
22:00 -3°C° 0 mm 1 mps 715 mmHg 92%
23:00 -3°C° 0 mm 1 mps 715 mmHg 92%
Show more